Time,TemperatureF,DewpointF,PressureIn,WindDirection,WindDirectionDegrees,WindSpeedMPH,WindSpeedGustMPH,Humidity,HourlyPrecipIn,Conditions,Clouds,dailyrainin,SoftwareType,DateUTC
2013-06-16 00:01:00,57.4,41.3,29.93,SW,225,0.0,0.0,55,0.00,CLR,FEW,0.00,WeatherDisplay:10.37,2013-06-16 07:01:00,
2013-06-16 00:06:00,57.0,41.5,29.93,SW,225,0.0,0.0,56,0.00,CLR,FEW,0.00,WeatherDisplay:10.37,2013-06-16 07:06:00,
2013-06-16 00:11:00,56.8,40.8,29.93,SW,225,0.0,0.0,55,0.00,CLR,FEW,0.00,WeatherDisplay:10.37,2013-06-16 07:11:00,
2013-06-16 00:16:00,56.5,41.4,29.93,SW,225,0.0,0.0,57,0.00,CLR,FEW,0.00,WeatherDisplay:10.37,2013-06-16 07:16:00,
2013-06-16 00:21:00,56.3,40.8,29.94,SW,225,0.0,0.0,56,0.00,CLR,FEW,0.00,WeatherDisplay:10.37,2013-06-16 07:21:00,
2013-06-16 00:26:00,56.1,41.1,29.94,SW,225,0.0,0.0,57,0.00,CLR,FEW,0.00,WeatherDisplay:10.37,2013-06-16 07:26:00,
2013-06-16 00:31:00,55.9,40.9,29.94,SW,225,0.0,0.0,57,0.00,CLR,FEW,0.00,WeatherDisplay:10.37,2013-06-16 07:31:00,
2013-06-16 00:36:00,55.8,41.2,29.94,SW,225,0.0,0.0,58,0.00,CLR,FEW,0.00,WeatherDisplay:10.37,2013-06-16 07:36:00,
2013-06-16 00:41:00,55.6,41.0,29.95,SW,225,0.0,0.0,58,0.00,CLR,FEW,0.00,WeatherDisplay:10.37,2013-06-16 07:41:00,
2013-06-16 00:46:00,55.2,40.7,29.95,SW,225,0.0,0.0,58,0.00,CLR,FEW,0.00,WeatherDisplay:10.37,2013-06-16 07:46:00,
2013-06-16 00:51:00,55.2,40.7,29.94,SW,225,0.0,0.0,58,0.00,CLR,FEW,0.00,WeatherDisplay:10.37,2013-06-16 07:51:00,
2013-06-16 00:56:00,54.9,40.8,29.95,SW,225,0.0,0.0,59,0.00,CLR,FEW,0.00,WeatherDisplay:10.37,2013-06-16 07:56:00,
2013-06-16 01:01:00,54.7,40.6,29.95,SW,225,0.0,0.0,59,0.00,CLR,FEW,0.00,WeatherDisplay:10.37,2013-06-16 08:01:00,
2013-06-16 01:06:00,54.5,40.5,29.95,SW,225,0.0,0.0,59,0.00,CLR,FEW,0.00,WeatherDisplay:10.37,2013-06-16 08:06:00,
2013-06-16 01:11:00,54.3,40.3,29.95,SW,225,0.0,0.0,59,0.00,CLR,FEW,0.00,WeatherDisplay:10.37,2013-06-16 08:11:00,
2013-06-16 01:16:00,54.1,40.6,29.95,SW,225,0.0,0.0,60,0.00,CLR,FEW,0.00,WeatherDisplay:10.37,2013-06-16 08:16:00,
2013-06-16 01:21:00,53.8,39.8,29.95,SW,225,0.0,0.0,59,0.00,CLR,FEW,0.00,WeatherDisplay:10.37,2013-06-16 08:21:00,
2013-06-16 01:26:00,53.4,39.9,29.95,SW,225,0.0,0.0,60,0.00,CLR,FEW,0.00,WeatherDisplay:10.37,2013-06-16 08:26:00,
2013-06-16 01:31:00,53.4,39.9,29.95,SW,225,0.0,0.0,60,0.00,CLR,FEW,0.00,WeatherDisplay:10.37,2013-06-16 08:31:00,
2013-06-16 01:36:00,53.2,39.7,29.95,SW,225,0.0,0.0,60,0.00,CLR,FEW,0.00,WeatherDisplay:10.37,2013-06-16 08:36:00,
2013-06-16 01:41:00,53.2,39.7,29.96,SW,225,0.0,0.0,60,0.00,CLR,FEW,0.00,WeatherDisplay:10.37,2013-06-16 08:41:00,
2013-06-16 01:46:00,52.7,39.6,29.95,SW,225,0.0,0.0,61,0.00,CLR,FEW,0.00,WeatherDisplay:10.37,2013-06-16 08:46:00,
2013-06-16 01:51:00,52.7,39.6,29.95,SW,225,0.0,0.0,61,0.00,CLR,FEW,0.00,WeatherDisplay:10.37,2013-06-16 08:51:00,
2013-06-16 01:56:00,52.5,39.9,29.95,SW,225,0.0,0.0,62,0.00,CLR,FEW,0.00,WeatherDisplay:10.37,2013-06-16 08:56:00,
2013-06-16 02:01:00,52.3,39.7,29.95,SW,225,0.0,0.0,62,0.00,CLR,FEW,0.00,WeatherDisplay:10.37,2013-06-16 09:01:00,
2013-06-16 02:06:00,52.2,39.5,29.96,SW,225,0.0,0.0,62,0.00,CLR,FEW,0.00,WeatherDisplay:10.37,2013-06-16 09:06:00,
2013-06-16 02:11:00,52.0,39.4,29.96,SW,225,0.0,0.0,62,0.00,CLR,FEW,0.00,WeatherDisplay:10.37,2013-06-16 09:11:00,
2013-06-16 02:16:00,52.0,39.4,29.96,SW,225,0.0,0.0,62,0.00,CLR,FEW,0.00,WeatherDisplay:10.37,2013-06-16 09:16:00,
2013-06-16 02:21:00,51.6,39.0,29.96,SW,225,0.0,0.0,62,0.00,CLR,FEW,0.00,WeatherDisplay:10.37,2013-06-16 09:21:00,
2013-06-16 02:26:00,51.6,39.0,29.96,SW,225,0.0,0.0,62,0.00,CLR,FEW,0.00,WeatherDisplay:10.37,2013-06-16 09:26:00,
2013-06-16 02:31:00,51.6,39.4,29.96,SW,225,0.0,0.0,63,0.00,CLR,FEW,0.00,WeatherDisplay:10.37,2013-06-16 09:31:00,
2013-06-16 02:36:00,51.4,39.3,29.96,SW,225,0.0,0.0,63,0.00,CLR,FEW,0.00,WeatherDisplay:10.37,2013-06-16 09:36:00,
2013-06-16 02:41:00,51.3,39.1,29.96,SW,225,0.0,0.0,63,0.00,CLR,FEW,0.00,WeatherDisplay:10.37,2013-06-16 09:41:00,
2013-06-16 02:46:00,51.1,39.3,29.96,SW,225,0.0,0.0,64,0.00,CLR,FEW,0.00,WeatherDisplay:10.37,2013-06-16 09:46:00,
2013-06-16 02:51:00,50.7,39.0,29.97,SW,225,0.0,0.0,64,0.00,CLR,FEW,0.00,WeatherDisplay:10.37,2013-06-16 09:51:00,
2013-06-16 02:56:00,50.7,39.0,29.97,SW,225,0.0,0.0,64,0.00,CLR,FEW,0.00,WeatherDisplay:10.37,2013-06-16 09:56:00,
2013-06-16 03:01:00,50.5,39.2,29.97,SW,225,0.0,0.0,65,0.00,CLR,FEW,0.00,WeatherDisplay:10.37,2013-06-16 10:01:00,
2013-06-16 03:06:00,50.5,39.2,29.96,SW,225,0.0,0.0,65,0.00,CLR,FEW,0.00,WeatherDisplay:10.37,2013-06-16 10:06:00,
2013-06-16 03:11:00,50.4,39.4,29.96,SW,225,0.0,0.0,66,0.00,CLR,FEW,0.00,WeatherDisplay:10.37,2013-06-16 10:11:00,
2013-06-16 03:16:00,50.2,38.9,29.97,SW,225,0.0,0.0,65,0.00,CLR,FEW,0.00,WeatherDisplay:10.37,2013-06-16 10:16:00,
2013-06-16 03:21:00,50.2,38.9,29.97,SW,225,0.0,0.0,65,0.00,CLR,FEW,0.00,WeatherDisplay:10.37,2013-06-16 10:21:00,
2013-06-16 03:26:00,50.2,39.3,29.97,SW,225,0.0,0.0,66,0.00,CLR,FEW,0.00,WeatherDisplay:10.37,2013-06-16 10:26:00,
2013-06-16 03:31:00,49.8,38.5,29.97,SW,225,0.0,0.0,65,0.00,CLR,FEW,0.00,WeatherDisplay:10.37,2013-06-16 10:31:00,
2013-06-16 03:36:00,49.8,38.9,29.97,SW,225,0.0,0.0,66,0.00,CLR,FEW,0.00,WeatherDisplay:10.37,2013-06-16 10:36:00,
2013-06-16 03:41:00,49.6,38.7,29.97,SW,225,0.0,0.0,66,0.00,CLR,FEW,0.00,WeatherDisplay:10.37,2013-06-16 10:41:00,
2013-06-16 03:46:00,49.6,38.7,29.98,SW,225,0.0,0.0,66,0.00,CLR,FEW,0.00,WeatherDisplay:10.37,2013-06-16 10:46:00,
2013-06-16 03:51:00,49.3,38.4,29.97,SW,225,0.0,0.0,66,0.00,CLR,FEW,0.00,WeatherDisplay:10.37,2013-06-16 10:51:00,
2013-06-16 03:56:00,49.3,38.4,29.97,SW,225,0.0,0.0,66,0.00,CLR,FEW,0.00,WeatherDisplay:10.37,2013-06-16 10:56:00,
2013-06-16 04:01:00,49.1,38.6,29.98,SW,225,0.0,0.0,67,0.00,CLR,FEW,0.00,WeatherDisplay:10.37,2013-06-16 11:01:00,
2013-06-16 04:06:00,49.1,38.6,29.98,SW,225,0.0,0.0,67,0.00,CLR,FEW,0.00,WeatherDisplay:10.37,2013-06-16 11:06:00,
2013-06-16 04:11:00,48.9,38.4,29.98,SW,225,0.0,0.0,67,0.00,CLR,FEW,0.00,WeatherDisplay:10.37,2013-06-16 11:11:00,
2013-06-16 04:16:00,48.9,38.8,29.98,SW,225,0.0,0.0,68,0.00,CLR,FEW,0.00,WeatherDisplay:10.37,2013-06-16 11:16:00,
2013-06-16 04:21:00,48.7,38.3,29.99,SW,225,0.0,0.0,67,0.00,CLR,FEW,0.00,WeatherDisplay:10.37,2013-06-16 11:21:00,
2013-06-16 04:26:00,48.6,38.1,29.98,SW,225,0.0,0.0,67,0.00,CLR,FEW,0.00,WeatherDisplay:10.37,2013-06-16 11:26:00,
2013-06-16 04:31:00,48.6,38.1,29.98,SW,225,0.0,0.0,67,0.00,CLR,FEW,0.00,WeatherDisplay:10.37,2013-06-16 11:31:00,
2013-06-16 04:36:00,48.4,38.3,29.99,SW,225,0.0,0.0,68,0.00,CLR,FEW,0.00,WeatherDisplay:10.37,2013-06-16 11:36:00,
2013-06-16 04:41:00,48.0,38.0,29.99,SW,225,0.0,0.0,68,0.00,CLR,FEW,0.00,WeatherDisplay:10.37,2013-06-16 11:41:00,
2013-06-16 04:46:00,48.0,38.3,29.99,SW,225,0.0,0.0,69,0.00,CLR,FEW,0.00,WeatherDisplay:10.37,2013-06-16 11:46:00,
2013-06-16 04:51:00,48.0,38.3,29.99,SW,225,0.0,0.0,69,0.00,CLR,FEW,0.00,WeatherDisplay:10.37,2013-06-16 11:51:00,
2013-06-16 04:56:00,47.8,38.2,29.99,SW,225,0.0,0.0,69,0.00,CLR,FEW,0.00,WeatherDisplay:10.37,2013-06-16 11:56:00,
2013-06-16 05:01:00,47.8,38.5,29.99,SW,225,0.0,0.0,70,0.00,CLR,FEW,0.00,WeatherDisplay:10.37,2013-06-16 12:01:00,
2013-06-16 05:06:00,47.8,38.5,29.99,SW,225,0.0,0.0,70,0.00,CLR,FEW,0.00,WeatherDisplay:10.37,2013-06-16 12:06:00,
2013-06-16 05:11:00,47.7,38.4,29.99,SW,225,0.0,0.0,70,0.00,CLR,FEW,0.00,WeatherDisplay:10.37,2013-06-16 12:11:00,
2013-06-16 05:16:00,47.7,38.0,30.00,SW,225,0.0,0.0,69,0.00,CLR,FEW,0.00,WeatherDisplay:10.37,2013-06-16 12:16:00,
2013-06-16 05:21:00,47.7,38.4,30.00,SW,225,0.0,0.0,70,0.00,CLR,FEW,0.00,WeatherDisplay:10.37,2013-06-16 12:21:00,
2013-06-16 05:26:00,47.5,38.2,30.00,SW,225,0.0,0.0,70,0.00,CLR,FEW,0.00,WeatherDisplay:10.37,2013-06-16 12:26:00,
2013-06-16 05:31:00,47.5,38.2,30.00,SW,225,0.0,0.0,70,0.00,CLR,FEW,0.00,WeatherDisplay:10.37,2013-06-16 12:31:00,
2013-06-16 05:36:00,47.7,38.4,30.00,SW,225,0.0,0.0,70,0.00,CLR,FEW,0.00,WeatherDisplay:10.37,2013-06-16 12:36:00,
2013-06-16 05:41:00,47.7,38.4,30.00,SW,225,0.0,0.0,70,0.00,CLR,FEW,0.00,WeatherDisplay:10.37,2013-06-16 12:41:00,
2013-06-16 05:46:00,47.8,38.9,30.00,SW,225,0.0,0.0,71,0.00,CLR,FEW,0.00,WeatherDisplay:10.37,2013-06-16 12:46:00,
2013-06-16 05:51:00,48.0,39.1,30.00,SW,225,0.0,0.0,71,0.00,CLR,FEW,0.00,WeatherDisplay:10.37,2013-06-16 12:51:00,
2013-06-16 05:56:00,48.2,39.6,30.00,SW,225,0.0,0.0,72,0.00,CLR,FEW,0.00,WeatherDisplay:10.37,2013-06-16 12:56:00,
2013-06-16 06:01:00,48.7,40.5,30.00,SW,225,0.0,0.0,73,0.00,CLR,FEW,0.00,WeatherDisplay:10.37,2013-06-16 13:01:00,
2013-06-16 06:06:00,49.8,41.9,30.01,SW,225,0.0,0.0,74,0.00,CLR,FEW,0.00,WeatherDisplay:10.37,2013-06-16 13:06:00,
2013-06-16 06:11:00,51.1,43.1,30.01,SW,225,0.0,0.0,74,0.00,CLR,FEW,0.00,WeatherDisplay:10.37,2013-06-16 13:11:00,
2013-06-16 06:16:00,53.4,43.9,30.01,SW,225,0.0,0.0,70,0.00,CLR,FEW,0.00,WeatherDisplay:10.37,2013-06-16 13:16:00,
2013-06-16 06:21:00,54.0,43.6,30.00,SW,225,0.0,0.0,68,0.00,CLR,FEW,0.00,WeatherDisplay:10.37,2013-06-16 13:21:00,
2013-06-16 06:26:00,55.8,44.6,30.00,NW,315,0.0,0.0,66,0.00,CLR,FEW,0.00,WeatherDisplay:10.37,2013-06-16 13:26:00,
2013-06-16 06:31:00,57.0,45.0,30.00,NW,315,0.0,0.0,64,0.00,CLR,FEW,0.00,WeatherDisplay:10.37,2013-06-16 13:31:00,
2013-06-16 06:36:00,58.8,46.2,30.01,NW,315,0.0,0.0,63,0.00,CLR,FEW,0.00,WeatherDisplay:10.37,2013-06-16 13:36:00,
2013-06-16 06:41:00,59.2,46.6,30.01,NW,315,0.0,0.0,63,0.00,CLR,FEW,0.00,WeatherDisplay:10.37,2013-06-16 13:41:00,
2013-06-16 06:46:00,63.0,48.9,30.01,NW,315,0.0,0.0,60,0.00,CLR,FEW,0.00,WeatherDisplay:10.37,2013-06-16 13:46:00,
2013-06-16 06:51:00,63.9,48.3,30.01,NW,315,0.0,0.0,57,0.00,CLR,FEW,0.00,WeatherDisplay:10.37,2013-06-16 13:51:00,
2013-06-16 06:56:00,65.1,48.1,30.01,NNW,338,0.0,0.0,54,0.00,CLR,FEW,0.00,WeatherDisplay:10.37,2013-06-16 13:56:00,
2013-06-16 07:01:00,66.0,47.9,30.01,NNW,338,0.0,0.0,52,0.00,CLR,FEW,0.00,WeatherDisplay:10.37,2013-06-16 14:01:00,
2013-06-16 07:06:00,66.6,47.3,30.01,NE,45,0.0,0.0,50,0.00,CLR,FEW,0.00,WeatherDisplay:10.37,2013-06-16 14:06:00,
2013-06-16 07:11:00,66.7,47.0,30.01,NE,45,0.0,0.0,49,0.00,CLR,FEW,0.00,WeatherDisplay:10.37,2013-06-16 14:11:00,
2013-06-16 07:16:00,67.3,47.5,30.01,NE,45,0.0,0.0,49,0.00,CLR,FEW,0.00,WeatherDisplay:10.37,2013-06-16 14:16:00,
2013-06-16 07:21:00,67.8,46.8,30.01,NE,45,0.0,0.0,47,0.00,CLR,FEW,0.00,WeatherDisplay:10.37,2013-06-16 14:21:00,
2013-06-16 07:26:00,69.1,46.8,30.01,NE,45,0.0,0.0,45,0.00,CLR,FEW,0.00,WeatherDisplay:10.37,2013-06-16 14:26:00,
2013-06-16 07:31:00,70.7,48.3,30.00,NE,45,0.0,0.0,45,0.00,CLR,FEW,0.00,WeatherDisplay:10.37,2013-06-16 14:31:00,
2013-06-16 07:36:00,71.4,47.7,30.00,NE,45,0.0,0.0,43,0.00,CLR,FEW,0.00,WeatherDisplay:10.37,2013-06-16 14:36:00,
2013-06-16 07:41:00,71.8,47.4,30.00,NE,45,0.0,0.0,42,0.00,CLR,FEW,0.00,WeatherDisplay:10.37,2013-06-16 14:41:00,
2013-06-16 07:46:00,72.7,47.6,30.01,NE,45,0.0,0.0,41,0.00,CLR,FEW,0.00,WeatherDisplay:10.37,2013-06-16 14:46:00,
2013-06-16 07:51:00,73.0,47.3,30.00,NE,45,0.0,0.0,40,0.00,CLR,FEW,0.00,WeatherDisplay:10.37,2013-06-16 14:51:00,
2013-06-16 07:56:00,73.6,47.1,30.01,NE,45,0.0,0.0,39,0.00,CLR,FEW,0.00,WeatherDisplay:10.37,2013-06-16 14:56:00,
2013-06-16 08:01:00,73.9,47.4,30.01,ENE,68,0.0,0.0,39,0.00,CLR,FEW,0.00,WeatherDisplay:10.37,2013-06-16 15:01:00,
2013-06-16 08:06:00,74.8,46.8,30.00,NNE,22,0.0,0.0,37,0.00,CLR,FEW,0.00,WeatherDisplay:10.37,2013-06-16 15:06:00,
2013-06-16 08:11:00,75.0,47.0,30.00,NNE,22,0.0,0.0,37,0.00,CLR,FEW,0.00,WeatherDisplay:10.37,2013-06-16 15:11:00,
2013-06-16 08:16:00,76.3,46.6,30.00,NNE,22,0.0,0.0,35,0.00,CLR,FEW,0.00,WeatherDisplay:10.37,2013-06-16 15:16:00,
2013-06-16 08:21:00,76.6,46.9,30.00,NE,45,0.0,0.0,35,0.00,CLR,FEW,0.00,WeatherDisplay:10.37,2013-06-16 15:21:00,
2013-06-16 08:26:00,76.5,46.0,29.99,ENE,68,0.0,0.0,34,0.00,CLR,FEW,0.00,WeatherDisplay:10.37,2013-06-16 15:26:00,
2013-06-16 08:31:00,76.5,46.8,30.00,ENE,68,0.0,0.0,35,0.00,CLR,FEW,0.00,WeatherDisplay:10.37,2013-06-16 15:31:00,
2013-06-16 08:36:00,76.8,47.1,30.00,ENE,68,0.0,0.0,35,0.00,CLR,FEW,0.00,WeatherDisplay:10.37,2013-06-16 15:36:00,
2013-06-16 08:41:00,77.2,47.4,29.99,NE,45,0.0,0.0,35,0.00,CLR,FEW,0.00,WeatherDisplay:10.37,2013-06-16 15:41:00,
2013-06-16 08:46:00,78.4,46.1,29.99,North,0,2.3,2.3,32,0.00,CLR,FEW,0.00,WeatherDisplay:10.37,2013-06-16 15:46:00,
2013-06-16 08:51:00,78.6,46.3,29.99,NE,45,0.0,0.0,32,0.00,CLR,FEW,0.00,WeatherDisplay:10.37,2013-06-16 15:51:00,
2013-06-16 08:56:00,78.8,46.4,29.99,ENE,68,0.0,0.0,32,0.00,CLR,FEW,0.00,WeatherDisplay:10.37,2013-06-16 15:56:00,
2013-06-16 09:01:00,79.2,45.9,29.98,NE,45,0.0,0.0,31,0.00,CLR,FEW,0.00,WeatherDisplay:10.37,2013-06-16 16:01:00,
2013-06-16 09:06:00,79.7,46.4,29.98,NNE,22,0.0,0.0,31,0.00,CLR,FEW,0.00,WeatherDisplay:10.37,2013-06-16 16:06:00,
2013-06-16 09:11:00,79.9,46.5,29.98,NNE,22,0.0,0.0,31,0.00,CLR,FEW,0.00,WeatherDisplay:10.37,2013-06-16 16:11:00,
2013-06-16 09:16:00,80.2,46.0,29.98,North,0,0.0,0.0,30,0.00,CLR,FEW,0.00,WeatherDisplay:10.37,2013-06-16 16:16:00,
2013-06-16 09:21:00,80.2,46.9,29.98,NNE,22,0.0,0.0,31,0.00,CLR,FEW,0.00,WeatherDisplay:10.37,2013-06-16 16:21:00,
2013-06-16 09:26:00,79.9,45.7,29.97,ENE,68,0.0,0.0,30,0.00,CLR,FEW,0.00,WeatherDisplay:10.37,2013-06-16 16:26:00,
2013-06-16 09:31:00,79.3,45.2,29.97,NE,45,2.3,2.3,30,0.00,CLR,FEW,0.00,WeatherDisplay:10.37,2013-06-16 16:31:00,
2013-06-16 09:36:00,79.2,45.0,29.97,NE,45,0.0,0.0,30,0.00,CLR,FEW,0.00,WeatherDisplay:10.37,2013-06-16 16:36:00,
2013-06-16 09:41:00,78.6,45.4,29.97,NE,45,0.0,0.0,31,0.00,CLR,FEW,0.00,WeatherDisplay:10.37,2013-06-16 16:41:00,
2013-06-16 09:46:00,78.6,44.6,29.97,ENE,68,0.0,0.0,30,0.00,CLR,FEW,0.00,WeatherDisplay:10.37,2013-06-16 16:46:00,
2013-06-16 09:51:00,78.6,45.4,29.97,North,0,3.5,3.5,31,0.00,CLR,FEW,0.00,WeatherDisplay:10.37,2013-06-16 16:51:00,
2013-06-16 09:56:00,78.1,44.1,29.96,ENE,68,3.5,0.0,30,0.00,CLR,FEW,0.00,WeatherDisplay:10.37,2013-06-16 16:56:00,
2013-06-16 10:01:00,77.9,44.8,29.96,ENE,68,0.0,0.0,31,0.00,CLR,FEW,0.00,WeatherDisplay:10.37,2013-06-16 17:01:00,
2013-06-16 10:06:00,77.7,44.7,29.96,NE,45,0.0,0.0,31,0.00,CLR,FEW,0.00,WeatherDisplay:10.37,2013-06-16 17:06:00,
2013-06-16 10:11:00,77.9,45.7,29.96,North,0,2.3,2.3,32,0.00,CLR,FEW,0.00,WeatherDisplay:10.37,2013-06-16 17:11:00,
2013-06-16 10:16:00,78.3,45.1,29.96,North,0,1.2,1.3,31,0.00,CLR,FEW,0.00,WeatherDisplay:10.37,2013-06-16 17:16:00,
2013-06-16 10:21:00,78.3,45.1,29.95,North,0,0.0,0.0,31,0.00,CLR,FEW,0.00,WeatherDisplay:10.37,2013-06-16 17:21:00,
2013-06-16 10:26:00,78.6,47.1,29.95,ENE,68,0.0,0.0,33,0.00,CLR,FEW,0.00,WeatherDisplay:10.37,2013-06-16 17:26:00,
2013-06-16 10:31:00,78.6,46.3,29.95,East,90,0.0,0.0,32,0.00,CLR,FEW,0.00,WeatherDisplay:10.37,2013-06-16 17:31:00,
2013-06-16 10:36:00,78.6,46.3,29.95,ENE,68,0.0,0.0,32,0.00,CLR,FEW,0.00,WeatherDisplay:10.37,2013-06-16 17:36:00,
2013-06-16 10:41:00,78.6,45.4,29.94,ENE,68,0.0,0.0,31,0.00,CLR,FEW,0.00,WeatherDisplay:10.37,2013-06-16 17:41:00,
2013-06-16 10:46:00,79.0,46.6,29.94,ESE,112,0.0,0.0,32,0.00,CLR,FEW,0.00,WeatherDisplay:10.37,2013-06-16 17:46:00,
2013-06-16 10:51:00,79.9,47.4,29.94,ESE,112,0.0,0.0,32,0.00,CLR,FEW,0.00,WeatherDisplay:10.37,2013-06-16 17:51:00,
2013-06-16 10:56:00,80.2,47.7,29.95,ESE,112,0.0,0.0,32,0.00,CLR,FEW,0.00,WeatherDisplay:10.37,2013-06-16 17:56:00,
2013-06-16 11:01:00,80.2,48.5,29.94,ESE,112,0.0,0.0,33,0.00,CLR,FEW,0.00,WeatherDisplay:10.37,2013-06-16 18:01:00,
2013-06-16 11:06:00,80.2,46.9,29.94,ESE,112,0.0,0.0,31,0.00,CLR,FEW,0.00,WeatherDisplay:10.37,2013-06-16 18:06:00,
2013-06-16 11:11:00,80.2,47.7,29.93,NE,45,0.0,0.0,32,0.00,CLR,FEW,0.00,WeatherDisplay:10.37,2013-06-16 18:11:00,
2013-06-16 11:16:00,80.2,46.0,29.93,NE,45,0.0,0.0,30,0.00,CLR,FEW,0.00,WeatherDisplay:10.37,2013-06-16 18:16:00,
2013-06-16 11:21:00,80.4,46.1,29.93,North,0,0.0,0.0,30,0.00,CLR,FEW,0.00,WeatherDisplay:10.37,2013-06-16 18:21:00,
2013-06-16 11:26:00,80.2,46.0,29.92,NNE,22,0.0,0.0,30,0.00,CLR,FEW,0.00,WeatherDisplay:10.37,2013-06-16 18:26:00,
2013-06-16 11:31:00,80.2,46.9,29.92,NE,45,0.0,0.0,31,0.00,CLR,FEW,0.00,WeatherDisplay:10.37,2013-06-16 18:31:00,
2013-06-16 11:36:00,80.4,47.0,29.92,NE,45,0.0,0.0,31,0.00,CLR,FEW,0.00,WeatherDisplay:10.37,2013-06-16 18:36:00,
2013-06-16 11:41:00,80.4,47.9,29.92,East,90,0.0,0.0,32,0.00,CLR,FEW,0.00,WeatherDisplay:10.37,2013-06-16 18:41:00,
2013-06-16 11:46:00,80.8,48.2,29.91,ESE,112,0.0,0.0,32,0.00,CLR,FEW,0.00,WeatherDisplay:10.37,2013-06-16 18:46:00,
2013-06-16 11:51:00,80.8,48.2,29.91,SE,135,0.0,0.0,32,0.00,CLR,FEW,0.00,WeatherDisplay:10.37,2013-06-16 18:51:00,
2013-06-16 11:56:00,81.1,48.5,29.91,ENE,68,0.0,0.0,32,0.00,CLR,FEW,0.00,WeatherDisplay:10.37,2013-06-16 18:56:00,
2013-06-16 12:01:00,81.3,47.8,29.90,ENE,68,0.0,0.0,31,0.00,CLR,FEW,0.00,WeatherDisplay:10.37,2013-06-16 19:01:00,
2013-06-16 12:06:00,81.3,49.5,29.90,ESE,112,1.2,1.2,33,0.00,CLR,FEW,0.00,WeatherDisplay:10.37,2013-06-16 19:06:00,
2013-06-16 12:11:00,81.5,49.6,29.90,ENE,68,0.0,0.0,33,0.00,CLR,FEW,0.00,WeatherDisplay:10.37,2013-06-16 19:11:00,
2013-06-16 12:16:00,82.2,51.1,29.89,ESE,112,0.0,0.0,34,0.00,CLR,FEW,0.00,WeatherDisplay:10.37,2013-06-16 19:16:00,
2013-06-16 12:21:00,82.4,51.2,29.90,SE,135,0.0,0.0,34,0.00,CLR,FEW,0.00,WeatherDisplay:10.37,2013-06-16 19:21:00,
2013-06-16 12:26:00,83.1,51.0,29.89,East,90,0.0,0.0,33,0.00,CLR,FEW,0.00,WeatherDisplay:10.37,2013-06-16 19:26:00,
2013-06-16 12:31:00,83.5,49.7,29.89,NE,45,0.0,0.0,31,0.00,CLR,FEW,0.00,WeatherDisplay:10.37,2013-06-16 19:31:00,
2013-06-16 12:36:00,83.8,51.7,29.88,ESE,112,0.0,0.0,33,0.00,CLR,FEW,0.00,WeatherDisplay:10.37,2013-06-16 19:36:00,
2013-06-16 12:41:00,84.0,52.6,29.88,SSE,158,0.0,0.0,34,0.00,CLR,FEW,0.00,WeatherDisplay:10.37,2013-06-16 19:41:00,
2013-06-16 12:46:00,84.7,53.3,29.87,SSE,158,0.0,0.0,34,0.00,CLR,FEW,0.00,WeatherDisplay:10.37,2013-06-16 19:46:00,
2013-06-16 12:51:00,85.3,50.3,29.87,East,90,0.0,0.0,30,0.00,CLR,FEW,0.00,WeatherDisplay:10.37,2013-06-16 19:51:00,
2013-06-16 12:56:00,85.6,48.8,29.87,NNE,22,0.0,0.0,28,0.00,CLR,FEW,0.00,WeatherDisplay:10.37,2013-06-16 19:56:00,
2013-06-16 13:01:00,85.6,47.8,29.87,SE,135,0.0,0.0,27,0.00,CLR,FEW,0.00,WeatherDisplay:10.37,2013-06-16 20:01:00,
2013-06-16 13:06:00,86.2,49.3,29.87,South,180,0.0,0.0,28,0.00,CLR,FEW,0.00,WeatherDisplay:10.37,2013-06-16 20:06:00,
2013-06-16 13:11:00,86.2,48.3,29.87,South,180,0.0,0.0,27,0.00,CLR,FEW,0.00,WeatherDisplay:10.37,2013-06-16 20:11:00,
2013-06-16 13:16:00,87.1,49.0,29.86,SSW,202,2.3,2.3,27,0.00,CLR,FEW,0.00,WeatherDisplay:10.37,2013-06-16 20:16:00,
2013-06-16 13:21:00,87.4,49.3,29.85,West,270,3.1,3.1,27,0.00,CLR,FEW,0.00,WeatherDisplay:10.37,2013-06-16 20:21:00,
2013-06-16 13:26:00,87.6,47.4,29.86,WSW,248,1.2,0.0,25,0.00,CLR,FEW,0.00,WeatherDisplay:10.37,2013-06-16 20:26:00,
2013-06-16 13:31:00,88.3,48.1,29.86,West,270,0.0,0.0,25,0.00,CLR,FEW,0.00,WeatherDisplay:10.37,2013-06-16 20:31:00,
2013-06-16 13:36:00,88.5,47.1,29.86,WNW,292,0.0,0.0,24,0.00,CLR,FEW,0.00,WeatherDisplay:10.37,2013-06-16 20:36:00,
2013-06-16 13:41:00,88.5,46.0,29.85,WSW,248,3.5,3.5,23,0.00,CLR,FEW,0.00,WeatherDisplay:10.37,2013-06-16 20:41:00,
2013-06-16 13:46:00,88.9,46.3,29.85,West,270,0.0,0.0,23,0.00,CLR,FEW,0.00,WeatherDisplay:10.37,2013-06-16 20:46:00,
2013-06-16 13:51:00,89.2,47.7,29.85,NNW,338,0.0,0.0,24,0.00,CLR,FEW,0.00,WeatherDisplay:10.37,2013-06-16 20:51:00,
2013-06-16 13:56:00,89.4,45.6,29.84,WSW,248,4.6,4.6,22,0.00,CLR,FEW,0.00,WeatherDisplay:10.37,2013-06-16 20:56:00,
2013-06-16 14:01:00,89.8,45.9,29.84,WNW,292,0.0,0.0,22,0.00,CLR,FEW,0.00,WeatherDisplay:10.37,2013-06-16 21:01:00,
2013-06-16 14:06:00,90.0,46.0,29.84,WSW,248,5.8,5.8,22,0.00,CLR,FEW,0.00,WeatherDisplay:10.37,2013-06-16 21:06:00,
2013-06-16 14:11:00,90.1,46.2,29.84,NNE,22,0.0,0.0,22,0.00,CLR,FEW,0.00,WeatherDisplay:10.37,2013-06-16 21:11:00,
2013-06-16 14:16:00,90.1,44.9,29.84,West,270,1.2,1.2,21,0.00,CLR,FEW,0.00,WeatherDisplay:10.37,2013-06-16 21:16:00,
2013-06-16 14:21:00,90.1,44.9,29.84,WNW,292,0.0,0.0,21,0.00,CLR,FEW,0.00,WeatherDisplay:10.37,2013-06-16 21:21:00,
2013-06-16 14:26:00,90.3,45.1,29.83,South,180,0.0,0.0,21,0.00,CLR,FEW,0.00,WeatherDisplay:10.37,2013-06-16 21:26:00,
2013-06-16 14:31:00,90.5,46.5,29.83,WNW,292,0.0,0.0,22,0.00,CLR,FEW,0.00,WeatherDisplay:10.37,2013-06-16 21:31:00,
2013-06-16 14:36:00,90.5,45.2,29.83,NNE,22,2.3,2.3,21,0.00,CLR,FEW,0.00,WeatherDisplay:10.37,2013-06-16 21:36:00,
2013-06-16 14:41:00,90.5,45.2,29.83,SW,225,1.2,1.2,21,0.00,CLR,FEW,0.00,WeatherDisplay:10.37,2013-06-16 21:41:00,
2013-06-16 14:46:00,90.9,45.5,29.82,WSW,248,0.0,1.0,21,0.00,CLR,FEW,0.00,WeatherDisplay:10.37,2013-06-16 21:46:00,
2013-06-16 14:51:00,91.0,45.7,29.82,SW,225,4.6,4.7,21,0.00,CLR,FEW,0.00,WeatherDisplay:10.37,2013-06-16 21:51:00,
2013-06-16 14:56:00,91.2,45.8,29.82,SSW,202,4.6,0.0,21,0.00,CLR,FEW,0.00,WeatherDisplay:10.37,2013-06-16 21:56:00,
2013-06-16 15:01:00,91.2,45.8,29.82,SW,225,4.6,0.0,21,0.00,CLR,FEW,0.00,WeatherDisplay:10.37,2013-06-16 22:01:00,
2013-06-16 15:06:00,91.6,46.1,29.82,SW,225,10.4,10.4,21,0.00,CLR,FEW,0.00,WeatherDisplay:10.37,2013-06-16 22:06:00,
2013-06-16 15:11:00,91.6,46.1,29.82,SSW,202,2.3,2.3,21,0.00,CLR,FEW,0.00,WeatherDisplay:10.37,2013-06-16 22:11:00,
2013-06-16 15:16:00,91.8,45.0,29.82,WSW,248,0.0,0.0,20,0.00,CLR,FEW,0.00,WeatherDisplay:10.37,2013-06-16 22:16:00,
2013-06-16 15:21:00,91.8,45.0,29.81,WSW,248,4.6,4.6,20,0.00,CLR,FEW,0.00,WeatherDisplay:10.37,2013-06-16 22:21:00,
2013-06-16 15:26:00,91.9,45.1,29.81,SSW,202,6.9,6.9,20,0.00,CLR,FEW,0.00,WeatherDisplay:10.37,2013-06-16 22:26:00,
2013-06-16 15:31:00,91.9,45.1,29.81,West,270,0.0,0.0,20,0.00,CLR,FEW,0.00,WeatherDisplay:10.37,2013-06-16 22:31:00,
2013-06-16 15:36:00,92.1,43.9,29.81,North,0,0.0,0.0,19,0.00,CLR,FEW,0.00,WeatherDisplay:10.37,2013-06-16 22:36:00,
2013-06-16 15:41:00,92.1,45.3,29.80,WSW,248,0.0,0.0,20,0.00,CLR,FEW,0.00,WeatherDisplay:10.37,2013-06-16 22:41:00,
2013-06-16 15:46:00,92.1,43.9,29.80,SW,225,0.0,0.0,19,0.00,CLR,FEW,0.00,WeatherDisplay:10.37,2013-06-16 22:46:00,
2013-06-16 15:51:00,92.3,44.1,29.80,NW,315,4.6,4.6,19,0.00,CLR,FEW,0.00,WeatherDisplay:10.37,2013-06-16 22:51:00,
2013-06-16 15:56:00,92.3,44.1,29.80,SW,225,0.0,0.0,19,0.00,CLR,FEW,0.00,WeatherDisplay:10.37,2013-06-16 22:56:00,
2013-06-16 16:01:00,92.5,44.2,29.80,SW,225,1.2,1.2,19,0.00,CLR,FEW,0.00,WeatherDisplay:10.37,2013-06-16 23:01:00,
2013-06-16 16:06:00,92.5,44.2,29.79,West,270,1.2,0.0,19,0.00,CLR,FEW,0.00,WeatherDisplay:10.37,2013-06-16 23:06:00,
2013-06-16 16:11:00,92.7,44.4,29.80,SW,225,9.2,9.2,19,0.00,CLR,FEW,0.00,WeatherDisplay:10.37,2013-06-16 23:11:00,
2013-06-16 16:16:00,92.8,43.1,29.80,SW,225,8.1,0.0,18,0.00,CLR,FEW,0.00,WeatherDisplay:10.37,2013-06-16 23:16:00,
2013-06-16 16:21:00,92.8,43.1,29.79,SSW,202,0.0,0.0,18,0.00,CLR,FEW,0.00,WeatherDisplay:10.37,2013-06-16 23:21:00,
2013-06-16 16:26:00,92.8,43.1,29.79,SW,225,4.6,4.6,18,0.00,CLR,FEW,0.00,WeatherDisplay:10.37,2013-06-16 23:26:00,
2013-06-16 16:31:00,92.8,43.1,29.79,WNW,292,3.5,3.5,18,0.00,CLR,FEW,0.00,WeatherDisplay:10.37,2013-06-16 23:31:00,
2013-06-16 16:36:00,92.8,43.1,29.79,WSW,248,0.0,0.0,18,0.00,CLR,FEW,0.00,WeatherDisplay:10.37,2013-06-16 23:36:00,
2013-06-16 16:41:00,93.0,43.2,29.78,WSW,248,0.0,0.0,18,0.00,CLR,FEW,0.00,WeatherDisplay:10.37,2013-06-16 23:41:00,
2013-06-16 16:46:00,93.0,43.2,29.79,WNW,292,0.0,0.0,18,0.00,CLR,FEW,0.00,WeatherDisplay:10.37,2013-06-16 23:46:00,
2013-06-16 16:51:00,93.0,43.2,29.79,WSW,248,0.0,0.0,18,0.00,CLR,FEW,0.00,WeatherDisplay:10.37,2013-06-16 23:51:00,
2013-06-16 16:56:00,93.0,43.2,29.78,SW,225,2.9,2.9,18,0.00,CLR,FEW,0.00,WeatherDisplay:10.37,2013-06-16 23:56:00,
2013-06-16 17:01:00,93.2,43.4,29.78,WSW,248,3.5,3.5,18,0.00,CLR,FEW,0.00,WeatherDisplay:10.37,2013-06-17 00:01:00,
2013-06-16 17:06:00,93.4,43.5,29.78,WSW,248,0.0,0.0,18,0.00,CLR,FEW,0.00,WeatherDisplay:10.37,2013-06-17 00:06:00,
2013-06-16 17:11:00,93.4,43.5,29.78,WNW,292,5.8,5.8,18,0.00,CLR,FEW,0.00,WeatherDisplay:10.37,2013-06-17 00:11:00,
2013-06-16 17:16:00,93.4,43.5,29.78,SW,225,6.9,6.9,18,0.00,CLR,FEW,0.00,WeatherDisplay:10.37,2013-06-17 00:16:00,
2013-06-16 17:21:00,93.4,43.5,29.78,SW,225,6.9,6.9,18,0.00,CLR,FEW,0.00,WeatherDisplay:10.37,2013-06-17 00:21:00,
2013-06-16 17:26:00,93.6,43.7,29.78,West,270,2.3,2.3,18,0.00,CLR,FEW,0.00,WeatherDisplay:10.37,2013-06-17 00:26:00,
2013-06-16 17:31:00,93.6,43.7,29.78,SW,225,0.0,0.0,18,0.00,CLR,FEW,0.00,WeatherDisplay:10.37,2013-06-17 00:31:00,
2013-06-16 17:36:00,93.6,43.7,29.77,WNW,292,5.8,5.8,18,0.00,CLR,FEW,0.00,WeatherDisplay:10.37,2013-06-17 00:36:00,
2013-06-16 17:41:00,93.6,43.7,29.77,SW,225,1.2,1.3,18,0.00,CLR,FEW,0.00,WeatherDisplay:10.37,2013-06-17 00:41:00,
2013-06-16 21:19:00,74.8,43.8,29.82,WSW,248,0.0,0.0,33,0.00,CLR,FEW,0.00,WeatherDisplay:10.37,2013-06-17 04:19:00,
2013-06-16 21:20:00,74.8,43.8,29.82,WSW,248,0.0,0.0,33,0.00,CLR,FEW,0.00,WeatherDisplay:10.37,2013-06-17 04:20:00,
2013-06-16 21:21:00,74.8,43.8,29.82,WSW,248,0.0,0.0,33,0.00,CLR,FEW,0.00,WeatherDisplay:10.37,2013-06-17 04:21:00,
2013-06-16 21:22:00,74.8,43.8,29.82,WSW,248,0.0,0.0,33,0.00,CLR,FEW,0.00,WeatherDisplay:10.37,2013-06-17 04:22:00,
2013-06-16 21:24:00,74.3,44.1,29.82,NNW,338,0.0,0.0,34,0.00,CLR,FEW,0.00,WeatherDisplay:10.37,2013-06-17 04:24:00,
2013-06-16 21:29:00,74.1,43.9,29.82,NNW,338,0.0,0.0,34,0.00,CLR,FEW,0.00,WeatherDisplay:10.37,2013-06-17 04:29:00,
2013-06-16 21:34:00,74.1,43.9,29.82,NNW,338,0.0,0.0,34,0.00,CLR,FEW,0.00,WeatherDisplay:10.37,2013-06-17 04:34:00,
2013-06-16 21:39:00,73.6,43.5,29.82,NNW,338,0.0,0.0,34,0.00,CLR,FEW,0.00,WeatherDisplay:10.37,2013-06-17 04:39:00,
2013-06-16 21:44:00,73.4,44.1,29.82,NNW,338,0.0,0.0,35,0.00,CLR,FEW,0.00,WeatherDisplay:10.37,2013-06-17 04:44:00,
2013-06-16 21:50:00,73.2,43.9,29.82,NNW,338,0.0,0.0,35,0.00,CLR,FEW,0.00,WeatherDisplay:10.37,2013-06-17 04:50:00,
2013-06-16 21:55:00,72.7,44.9,29.82,NNW,338,0.0,0.0,37,0.00,CLR,FEW,0.00,WeatherDisplay:10.37,2013-06-17 04:55:00,
2013-06-16 22:00:00,72.3,43.9,29.82,NNW,338,0.0,0.0,36,0.00,CLR,FEW,0.00,WeatherDisplay:10.37,2013-06-17 05:00:00,
2013-06-16 22:05:00,71.8,44.1,29.82,NNW,338,0.0,0.0,37,0.00,CLR,FEW,0.00,WeatherDisplay:10.37,2013-06-17 05:05:00,
2013-06-16 22:10:00,71.2,44.3,29.82,NNW,338,0.0,0.0,38,0.00,CLR,FEW,0.00,WeatherDisplay:10.37,2013-06-17 05:10:00,
2013-06-16 22:15:00,70.9,44.7,29.82,NNW,338,0.0,0.0,39,0.00,CLR,FEW,0.00,WeatherDisplay:10.37,2013-06-17 05:15:00,
2013-06-16 22:20:00,70.5,45.0,29.83,NNW,338,0.0,0.0,40,0.00,CLR,FEW,0.00,WeatherDisplay:10.37,2013-06-17 05:20:00,
2013-06-16 22:25:00,70.0,44.5,29.83,NNW,338,0.0,0.0,40,0.00,CLR,FEW,0.00,WeatherDisplay:10.37,2013-06-17 05:25:00,
2013-06-16 22:30:00,69.6,44.2,29.83,NNW,338,0.0,0.0,40,0.00,CLR,FEW,0.00,WeatherDisplay:10.37,2013-06-17 05:30:00,
2013-06-16 22:35:00,69.1,44.4,29.83,NNW,338,0.0,0.0,41,0.00,CLR,FEW,0.00,WeatherDisplay:10.37,2013-06-17 05:35:00,
2013-06-16 22:40:00,68.7,44.7,29.83,NNW,338,0.0,0.0,42,0.00,CLR,FEW,0.00,WeatherDisplay:10.37,2013-06-17 05:40:00,
2013-06-16 22:45:00,68.4,44.4,29.84,NNW,338,0.0,0.0,42,0.00,CLR,FEW,0.00,WeatherDisplay:10.37,2013-06-17 05:45:00,
2013-06-16 22:50:00,67.8,44.5,29.84,NNW,338,0.0,0.0,43,0.00,CLR,FEW,0.00,WeatherDisplay:10.37,2013-06-17 05:50:00,
2013-06-16 22:55:00,67.6,44.3,29.84,NNW,338,0.0,0.0,43,0.00,CLR,FEW,0.00,WeatherDisplay:10.37,2013-06-17 05:55:00,
2013-06-16 23:00:00,67.1,44.4,29.84,NNW,338,0.0,0.0,44,0.00,CLR,FEW,0.00,WeatherDisplay:10.37,2013-06-17 06:00:00,
2013-06-16 23:05:00,66.6,44.5,29.84,NNW,338,0.0,0.0,45,0.00,CLR,FEW,0.00,WeatherDisplay:10.37,2013-06-17 06:05:00,
2013-06-16 23:10:00,66.4,44.4,29.84,NNW,338,0.0,0.0,45,0.00,CLR,FEW,0.00,WeatherDisplay:10.37,2013-06-17 06:10:00,
2013-06-16 23:15:00,66.0,44.6,29.85,NNW,338,0.0,0.0,46,0.00,CLR,FEW,0.00,WeatherDisplay:10.37,2013-06-17 06:15:00,
2013-06-16 23:20:00,65.8,45.0,29.85,NNW,338,0.0,0.0,47,0.00,CLR,FEW,0.00,WeatherDisplay:10.37,2013-06-17 06:20:00,
2013-06-16 23:25:00,65.5,45.3,29.85,NNW,338,0.0,0.0,48,0.00,CLR,FEW,0.00,WeatherDisplay:10.37,2013-06-17 06:25:00,
2013-06-16 23:30:00,65.3,45.1,29.85,NNW,338,0.0,0.0,48,0.00,CLR,FEW,0.00,WeatherDisplay:10.37,2013-06-17 06:30:00,
2013-06-16 23:35:00,64.9,45.3,29.85,WNW,292,0.0,0.0,49,0.00,CLR,FEW,0.00,WeatherDisplay:10.37,2013-06-17 06:35:00,
2013-06-16 23:40:00,64.8,45.1,29.85,WNW,292,0.0,0.0,49,0.00,CLR,FEW,0.00,WeatherDisplay:10.37,2013-06-17 06:40:00,
2013-06-16 23:45:00,64.6,45.5,29.86,NW,315,0.0,0.0,50,0.00,CLR,FEW,0.00,WeatherDisplay:10.37,2013-06-17 06:45:00,
2013-06-16 23:50:00,64.2,45.2,29.86,NW,315,0.0,0.0,50,0.00,CLR,FEW,0.00,WeatherDisplay:10.37,2013-06-17 06:50:00,
2013-06-16 23:55:00,64.0,45.5,29.86,NW,315,0.0,0.0,51,0.00,CLR,FEW,0.00,WeatherDisplay:10.37,2013-06-17 06:55:00,